Regional Weather Roundup
Issued by NWS

Home | Current Version | Previous Version | Text Only | Print | Product List | Glossary Off
Versions: 1 2 3 4 5 6 7 8 9 10 11 12 13 14 15 16 17 18 19 20 21 22 23 24 25 26 27 28 29 30 31 32 33 34 35 36 37 38 39 40 41 42 43 44 45 46 47 48 49 50

856
ASUS43 KLOT 030703
RWRIL

ILLINOIS REGIONAL WEATHER ROUNDUP
NATIONAL WEATHER SERVICE CHICAGO/ROMEOVILLE IL
200 AM CDT TUE MAY 03 2016

NOTE: "FAIR" INDICATES FEW OR NO CLOUDS BELOW 12,000 FEET WITH NO
SIGNIFICANT WEATHER AND/OR OBSTRUCTIONS TO VISIBILITY.

* THESE STATIONS ARE NOT UNDER NWS QUALITY CONTROL. THEY ALSO MAY NOT
  REPORT WEATHER SUCH AS PRECIPITATION OR FOG.

ILZ001-002-007-009-015-016-024-030800-
NORTHWEST ILLINOIS

CITY           SKY/WX    TMP DP  RH WIND       PRES   REMARKS
MOLINE         CLEAR     43  40  89 CALM      30.01F
STERLING*      CLOUDY    46  43  87 CALM      30.01F
$$

ILZ003-004-008-010-011-017-018-030800-
NORTH CENTRAL ILLINOIS

CITY           SKY/WX    TMP DP  RH WIND       PRES   REMARKS
ROCKFORD       CLEAR     42  37  82 CALM      30.02F
FREEPORT*      CLEAR     40  36  87 CALM      30.02S
ROCHELLE*      CLOUDY    38  37  97 CALM      30.01F
DE KALB*       CLEAR     41  36  81 CALM      30.01F
$$

ILZ005-006-012>014-019>023-030800-
NORTHEAST ILLINOIS

CITY           SKY/WX    TMP DP  RH WIND       PRES   REMARKS
CHICAGO-OHARE  CLEAR     42  36  79 W3        29.99F
CHICAGO-MIDWAY CLEAR     46  35  65 CALM      29.99F
AURORA         PTCLDY    38  35  89 CALM      30.01F
LANSING*       CLOUDY    40  38  92 CALM      29.99F
WAUKEGAN       CLEAR     38  36  92 W3        29.99S
DUPAGE AIRPORT CLEAR     40  33  76 CALM      30.00S
WHEELING       CLEAR     41  36  82 CALM      30.00F
NORTHERLY ISL    N/A     48  36  63 W5          N/A
NORTHERLY ISL    N/A     48  36  63 W5          N/A
$$

LMZ740>746-030800-
SOUTHERN LAKE MICHIGAN

STATION/POSITION SKY/WX   TEMP    WIND        PRES    VSBY  WAVE
                          AIR SEA DIR/SP/G                  HT/PER
                          (F)     (DEG/KT/KT) (MB)    (MI)  (FT/S)
SOUTHERN BUOY              42 41  320/  6/  8 1015.5          1
HARRISON CRIB              49     290/  5/  5   N/A
BURNHAM HARBOR             48     280/  5       N/A
CALUMET HARBOR             45     200/  2/  2 1015.2F
BURNS HARBOR               46     310/  4/  5 1016.3S
MICHIGAN CITY              44     240/  4/  5   N/A
ST. JOSEPH                 45 48                N/A           1/ 4
$$

ILZ025>027-034>036-040-047-049-050-058-095>099-030800-
WEST-CENTRAL ILLINOIS

CITY           SKY/WX    TMP DP  RH WIND       PRES   REMARKS
QUINCY         CLOUDY    49  47  93 W5        30.03S
MACOMB*        CLOUDY    49  47  94 NW6       30.04F
PITTSFIELD*    CLOUDY    51  49  92 W5        30.04S
$$

ILZ028>032-037-038-041>044-048-051>054-059>061-030800-
CENTRAL ILLINOIS

CITY           SKY/WX    TMP DP  RH WIND       PRES   REMARKS
BLOOMINGTON    CLOUDY    44  42  93 CALM      30.01F
DECATUR        CLOUDY    49  44  83 N3        30.00F
PEORIA         CLEAR     45  42  89 CALM      30.02S
SPRINGFIELD    CLOUDY    52  48  86 NW3       30.01F
TAYLORVILLE    NOT AVBL
$$

ILZ033-039-045-046-055>057-062-063-030800-
EAST-CENTRAL ILLINOIS

CITY           SKY/WX    TMP DP  RH WIND       PRES   REMARKS
CHAMPAIGN      MOCLDY    42  41  96 NW6       29.98F
MATTOON        CLOUDY    48  45  89 NW7       29.97F
$$

ILZ079-100>102-030800-
SOUTHWEST ILLINOIS

CITY           SKY/WX    TMP DP  RH WIND       PRES   REMARKS
ALTON          CLOUDY    51  49  96 W5        30.02F
CAHOKIA*       CLOUDY    54  49  83 NW3       30.02F
SPARTA*        CLOUDY    52  49  90 NW3       30.01F
$$

ILZ064>066-069>071-074>076-080>082-084>086-088>090-092>094-030800-
SOUTH-CENTRAL ILLINOIS

CITY           SKY/WX    TMP DP  RH WIND       PRES   REMARKS
CARBONDALE     CLOUDY    52  49  89 NW5       30.00F
EFFINGHAM*     CLOUDY    53  50  91 W7        30.00S
MT. VERNON     CLOUDY    54  46  76 CALM      30.00F
SALEM*         CLOUDY    54  50  87 NW6       30.00F
$$

ILZ067-068-072-073-078-083-087-091-030800-
SOUTHEAST ILLINOIS

CITY           SKY/WX    TMP DP  RH WIND       PRES   REMARKS
LAWRENCEVILLE  CLOUDY    54  51  90 NW8       29.96F
FLORA*         CLOUDY    54  51  88 W5        29.99F
HARRISBURG*    MOCLDY    52  49  91 NW3       29.99S
ROBINSON*      CLOUDY    49  49  98 NW6       29.97F
$$

ABBREVIATIONS USED IN REMARKS
   TC - TEMPERATURE IN CELSIUS
  WCI - WIND CHILL INDEX
   HX - HEAT INDEX
  VSB - VISIBILITY
$$





USA.gov is the U.S. government's official web portal to all federal, state and local government web resources and services.